Home   Weather   Hameln   Past weeks

Flag for Germany Past Weather in Hameln, Lower Saxony, Germany — Yesterday and Last 2 Weeks

Now
70 °F

Mild.


Feels Like: 70 °F
Forecast: 56 / 87 °F
Wind: 12 mph from South

Location: Bueckeburg

Current Time: May 28, 2017 at 8:41:29 am

Latest Report: May 28, 2017 at 7:20 am


Visibility: N/A

Pressure: 30.04 "Hg

Humidity: 60%

Dew Point: 55 °F

Location of HamelnLocation

Past Weather in Hameln — Graph

°F

Hameln Temperature Yesterday

Maximum temperature yesterday: 82 °F (at 4:20 pm)
Minimum temperature yesterday: 55 °F (at 3:20 am)
Average temperature yesterday: 70 °F

High & Low Weather Summary for the Past Weeks

 TemperatureHumidityPressure
High82 °F (May 27, 4:20 pm)100% (May 14, 4:20 am)30.39 "Hg (May 14, 4:20 am)
Low46 °F (May 21, 5:20 am)33% (May 15, 6:20 pm)29.77 "Hg (May 13, 7:20 am)
Average63 °F67%30.11 "Hg
* Reported May 13 7:20 am — May 28 7:20 am, Hameln. Weather by CustomWeather, © 2017

Note: Actual official high and low records may vary slightly from our data, if they occured in-between our weather recording intervals... More about our weather records

Advertising

Hameln Weather History for the Previous 24 Hours

Scroll right to see more
 ConditionsComfort  
Time TempWeatherWind HumidityBarometerVisibility
7:20 am
Sun, May 28
70 °FMild.12 mph60%30.04 "HgN/A
6:20 am68 °FMild.8 mph60%30.04 "HgN/A
5:20 am70 °FScattered clouds.10 mph57%30.04 "HgN/A
4:20 am70 °FPassing clouds.12 mph57%30.04 "HgN/A
3:20 am70 °FPassing clouds.9 mph57%30.04 "HgN/A
2:20 am70 °FPassing clouds.12 mph57%30.04 "HgN/A
1:20 am70 °FPassing clouds.13 mph57%30.07 "HgN/A
12:20 am70 °FPassing clouds.13 mph57%30.07 "HgN/A
11:20 pm
Sat, May 27
72 °FPassing clouds.10 mph53%30.07 "HgN/A
10:20 pm73 °FPassing clouds.13 mph50%30.07 "HgN/A
9:20 pm75 °FPassing clouds.10 mph44%30.07 "HgN/A
8:20 pm77 °FPassing clouds.8 mph44%30.07 "HgN/A
7:20 pm81 °FPassing clouds.9 mph37%30.07 "HgN/A
6:20 pm81 °FPassing clouds.12 mph39%30.07 "HgN/A
5:20 pm81 °FPleasantly warm.13 mph37%30.07 "HgN/A
4:20 pm82 °FPleasantly warm.13 mph37%30.09 "HgN/A
3:20 pm81 °FPleasantly warm.13 mph39%30.09 "HgN/A
2:20 pm79 °FWarm.12 mph45%30.09 "HgN/A
1:20 pm79 °FWarm.12 mph45%30.12 "HgN/A
12:20 pm77 °FWarm.10 mph47%30.12 "HgN/A
11:20 am75 °FMild.9 mph54%30.15 "HgN/A
10:20 am73 °FMild.8 mph57%30.15 "HgN/A
9:20 am72 °FMild.5 mph57%30.15 "HgN/A
8:20 am68 °FMild.6 mph60%30.15 "HgN/A
Weather by CustomWeather, © 2017

See weather overviewHow to use our weather pages